Waarnemingen

Advertentie
Mijn weer
Gourdon, Frankrijk (7535): temperatuur & dauwpunt: 16.05.2019 19:00:00 - 22.05.2019 19:00:00 (CEST)Gourdon, Frankrijk (7535): temperatuur 5cm: 16.05.2019 19:00:00 - 22.05.2019 19:00:00 (CEST)Gourdon, Frankrijk (7535): temperatuur -20cm & temperatuur -100cm: 16.05.2019 19:00:00 - 22.05.2019 19:00:00 (CEST)Gourdon, Frankrijk (7535): windsnelheid & windstoten: 16.05.2019 19:00:00 - 22.05.2019 19:00:00 (CEST)Gourdon, Frankrijk (7535): windrichting: 16.05.2019 19:00:00 - 22.05.2019 19:00:00 (CEST)Gourdon, Frankrijk (7535): luchtdruk: 16.05.2019 19:00:00 - 22.05.2019 19:00:00 (CEST)Gourdon, Frankrijk (7535): zicht: 16.05.2019 19:00:00 - 22.05.2019 19:00:00 (CEST)Gourdon, Frankrijk (7535): Zonneschijnduur: 16.05.2019 19:00:00 - 22.05.2019 19:00:00 (CEST)Gourdon, Frankrijk (7535): neerslag: 16.05.2019 19:00:00 - 22.05.2019 19:00:00 (CEST)
Datum & Tijd tt [°C] td [°C] tt 5cm [°C] tt -20cm [°C] tt -100cm [°C] ff [km/u] ff [kn] fx [km/u] fx [kn] dd ppp [hPa] vv [km] sd [min] rr [mm]
22.05.2019 19:00:00 - - - - - - - - - - - - - -
22.05.2019 18:00:00 23,6 8,8 27,5 17,4 14,7 8 4 26 14 NW 1017,2 20 58 0,0
22.05.2019 17:00:00 23,5 8,7 29,8 17,0 14,7 5 3 21 11 N 1017,4 20 60 0,0
22.05.2019 16:00:00 23,2 9,9 31,3 16,5 14,7 7 4 21 11 N 1017,7 20 60 0,0
22.05.2019 15:00:00 21,8 9,7 29,6 16,0 14,7 10 5 26 14 NNW 1018,2 19 53 0,0
22.05.2019 14:00:00 21,4 9,6 32,1 15,6 14,7 8 5 21 12 NO 1018,6 19 58 0,0
22.05.2019 13:00:00 20,7 11,1 32,0 15,4 14,7 8 4 19 10 NNO 1019,0 20 60 0,0
22.05.2019 12:00:00 19,1 9,8 31,7 15,1 14,7 8 4 13 7 NNW 1019,4 20 60 0,0
22.05.2019 11:00:00 17,5 12,2 27,8 15,1 14,7 6 4 14 7 N 1019,5 20 60 0,0
22.05.2019 10:00:00 14,9 11,5 20,8 15,1 14,7 4 2 7 4 N 1019,9 20 60 0,0
22.05.2019 09:00:00 11,8 11,2 13,3 15,2 14,7 2 1 6 3 N 1020,3 20 60 0,0
22.05.2019 08:00:00 10,1 10,1 7,1 15,4 14,7 0 0 4 2 N 1020,2 6 60 0,0
22.05.2019 07:00:00 7,1 7,0 6,5 15,5 14,7 0 0 4 2 N 1020,1 0,3 11 0,0
22.05.2019 06:00:00 8,6 8,5 5,1 15,7 14,7 3 2 5 3 N 1019,8 0,1 0 0,0
22.05.2019 05:00:00 7,8 7,5 5,4 15,9 14,7 0 0 5 3 N 1019,7 5 0 0,0
22.05.2019 04:00:00 8,3 8,0 6,6 16,0 14,6 3 2 8 5 ZO 1019,7 7 0 0,0
22.05.2019 03:00:00 8,6 8,3 6,8 16,2 14,7 5 3 8 5 OZO 1019,6 9 0 0,0
22.05.2019 02:00:00 9,0 8,5 7,4 16,4 14,7 5 3 8 5 ZO 1019,7 12 0 0,0
22.05.2019 01:00:00 9,6 9,0 7,9 16,5 14,6 4 2 7 4 ZZO 1019,7 13 0 0,0
22.05.2019 00:00:00 10,7 9,9 8,4 16,6 14,7 4 2 8 4 ZZO 1019,6 18 0 0,0
21.05.2019 23:00:00 12,6 10,7 8,8 16,7 14,6 4 2 8 4 Z 1019,4 20 0 0,0
21.05.2019 22:00:00 14,1 10,7 10,8 16,7 14,6 3 2 7 4 WZW 1019,1 20 0 0,0
21.05.2019 21:00:00 16,0 10,7 14,8 16,7 14,6 3 1 8 4 W 1018,3 20 42 0,0
21.05.2019 20:00:00 18,1 10,5 16,0 16,6 14,7 3 1 7 4 NNW 1017,4 20 35 0,0
21.05.2019 19:00:00 16,2 10,1 16,0 16,5 14,7 6 3 24 13 NNO 1017,5 20 0 0,0
21.05.2019 18:00:00 16,9 12,4 17,5 16,2 14,6 5 3 21 11 NO 1017,3 20 0 0,0
21.05.2019 17:00:00 17,3 13,6 17,6 15,9 14,7 0 0 22 12 N 1017,3 20 8 0,6
21.05.2019 16:00:00 18,3 11,4 20,7 15,6 14,7 10 5 23 12 NW 1017,5 20 14 0,0
21.05.2019 15:00:00 19,3 11,8 24,3 15,3 14,7 8 5 21 12 NNW 1017,3 20 47 0,0
21.05.2019 14:00:00 17,2 12,5 24,7 15,1 14,7 10 5 25 13 NNW 1017,8 20 34 0,0
21.05.2019 13:00:00 14,9 12,6 18,1 15,0 14,6 7 4 14 8 NW 1018,5 14 13 0,0
21.05.2019 12:00:00 12,0 11,5 16,6 14,9 14,7 3 2 9 5 NW 1018,9 7 0 0,0
21.05.2019 11:00:00 11,2 11,2 14,8 14,9 14,7 4 2 9 5 WNW 1018,8 2,5 0 0,0
21.05.2019 10:00:00 10,1 10,1 12,6 14,9 14,6 3 2 9 5 NNW 1018,6 0,2 0 0,0
21.05.2019 09:00:00 9,4 9,4 10,3 15,0 14,6 2 1 6 4 W 1018,2 0,1 0 0,0
21.05.2019 08:00:00 8,9 8,9 8,2 15,2 14,7 0 0 5 3 N 1017,7 0,2 0 0,0
21.05.2019 07:00:00 7,4 7,3 6,1 15,3 14,6 3 2 8 5 ZZO 1017,4 0,1 0 0,0
21.05.2019 06:00:00 6,8 6,7 5,2 15,5 14,6 2 1 6 4 ZZO 1017,1 0,1 0 0,0
21.05.2019 05:00:00 6,8 6,5 5,4 15,6 14,6 5 3 8 4 ZO 1016,9 3,0 0 0,0
21.05.2019 04:00:00 7,1 6,8 5,6 15,8 14,6 3 2 6 3 ZZO 1016,9 3,6 0 0,0
21.05.2019 03:00:00 7,8 7,4 6,5 16,0 14,6 5 3 7 4 ZO 1016,7 6 0 0,0
21.05.2019 02:00:00 8,5 8,1 6,1 16,1 14,6 4 2 6 3 ZZO 1016,8 6 0 0,0
21.05.2019 01:00:00 9,7 9,1 6,8 16,3 14,6 0 0 6 3 N 1016,9 17 0 0,0
21.05.2019 00:00:00 10,8 9,7 7,4 16,4 14,6 2 1 7 4 WZW 1016,7 20 0 0,0
20.05.2019 23:00:00 11,9 9,5 9,5 16,4 14,6 0 0 8 4 N 1016,3 20 0 0,0
20.05.2019 22:00:00 12,5 9,3 10,6 16,5 14,6 3 2 12 6 WNW 1015,6 20 0 0,0
20.05.2019 21:00:00 13,5 9,7 12,1 16,5 14,6 6 3 15 8 NW 1014,8 20 0 0,0
20.05.2019 20:00:00 16,2 10,7 17,2 16,4 14,6 4 2 17 9 NW 1014,2 20 45 0,0
20.05.2019 19:00:00 16,4 10,5 16,9 16,4 14,6 8 5 19 10 NNW 1014,0 20 24 0,0
20.05.2019 18:00:00 14,6 10,8 15,1 16,2 14,6 3 1 24 13 ZZW 1013,9 20 0 0,0
20.05.2019 17:00:00 15,5 9,4 17,0 16,1 14,6 10 5 21 12 NW 1013,7 20 0 0,0
20.05.2019 16:00:00 16,6 9,8 19,7 15,9 14,6 6 4 19 10 N 1013,5 20 4 0,0
20.05.2019 15:00:00 15,9 10,2 18,8 15,6 14,6 7 4 21 12 NNW 1013,6 20 0 0,0
20.05.2019 14:00:00 17,0 8,9 22,8 15,3 14,6 6 4 19 10 NW 1013,4 20 30 0,0
20.05.2019 13:00:00 16,4 9,3 20,6 15,1 14,6 12 6 27 15 NW 1013,6 20 49 0,0
20.05.2019 12:00:00 15,2 10,2 17,5 14,9 14,6 9 5 20 11 WNW 1013,8 20 32 0,0
20.05.2019 11:00:00 13,4 10,4 15,8 14,9 14,6 5 3 21 11 W 1014,2 20 17 0,0
20.05.2019 10:00:00 13,3 10,8 13,1 14,9 14,6 6 3 18 10 W 1013,9 20 24 0,0
20.05.2019 09:00:00 11,0 10,5 11,5 14,9 14,6 5 3 13 7 WNW 1014,0 8 0 0,0
20.05.2019 08:00:00 10,4 10,1 10,3 15,0 14,6 4 2 11 6 WNW 1013,6 5 0 0,0
20.05.2019 07:00:00 10,0 9,5 10,0 15,1 14,6 4 2 11 6 WNW 1013,1 4,2 0 0,0
20.05.2019 06:00:00 10,0 9,5 9,9 15,2 14,6 3 2 14 7 W 1012,6 6 0 0,0
20.05.2019 05:00:00 10,1 9,6 10,1 15,3 14,6 6 3 15 8 WNW 1012,5 5 0 0,0
20.05.2019 04:00:00 10,1 9,5 10,1 15,3 14,6 6 3 16 9 W 1012,5 8 0 0,0
20.05.2019 03:00:00 10,4 9,8 10,4 15,4 14,6 6 3 15 8 W 1012,7 10 0 0,0
20.05.2019 02:00:00 10,7 10,2 10,6 15,5 14,6 3 1 13 7 W 1012,7 8 0 0,0
20.05.2019 01:00:00 10,9 10,4 10,8 15,6 14,6 5 3 12 7 W 1012,8 10 0 0,0
20.05.2019 00:00:00 10,9 10,4 10,6 15,6 14,6 4 2 11 6 WZW 1012,7 9 0 0,0
19.05.2019 23:00:00 10,9 10,3 10,7 15,7 14,6 3 2 17 9 W 1012,6 9 0 1,4
19.05.2019 22:00:00 11,3 10,5 11,0 15,8 14,7 3 2 10 5 WZW 1011,9 19 0 0,0
19.05.2019 21:00:00 11,2 10,1 11,3 15,8 14,6 0 0 7 4 N 1011,4 20 0 0,0
19.05.2019 20:00:00 11,3 10,0 11,5 15,7 14,6 2 1 12 7 W 1010,9 20 0 0,2
19.05.2019 19:00:00 11,7 9,9 11,8 15,6 14,6 6 3 34 19 WNW 1010,6 12 0 0,2
19.05.2019 18:00:00 15,0 9,4 16,6 15,5 14,6 0 0 11 6 N 1009,8 20 0 0,0
19.05.2019 17:00:00 14,7 9,9 18,1 15,4 14,6 4 2 11 6 W 1010,0 20 0 0,0
19.05.2019 16:00:00 14,0 9,8 17,3 15,3 14,7 6 3 20 11 WNW 1010,1 20 0 0,0
19.05.2019 15:00:00 13,2 9,3 14,6 15,2 14,7 7 4 16 9 WNW 1010,2 20 0 0,0
19.05.2019 14:00:00 12,5 8,6 14,4 15,1 14,7 9 5 19 10 NW 1010,3 20 0 0,0
19.05.2019 13:00:00 13,0 9,1 16,2 14,9 14,6 6 4 18 10 W 1009,9 20 8 0,0
19.05.2019 12:00:00 13,4 8,9 14,1 14,9 14,6 7 4 19 10 W 1009,9 20 5 0,0
19.05.2019 11:00:00 12,2 8,8 14,7 14,8 14,6 5 3 11 6 WNW 1009,9 20 6 0,0
19.05.2019 10:00:00 11,4 9,0 13,4 14,9 14,7 5 3 11 6 W 1009,9 20 0 0,0
19.05.2019 09:00:00 10,3 9,2 10,6 15,0 14,6 5 3 11 6 WZW 1009,8 20 0 0,0
19.05.2019 08:00:00 9,4 8,8 9,6 15,0 14,6 4 2 11 6 WZW 1009,8 12 0 0,0
19.05.2019 07:00:00 9,3 8,5 9,4 15,1 14,6 4 2 13 7 ZW 1009,5 16 0 0,0
19.05.2019 06:00:00 9,4 8,6 9,5 15,2 14,7 3 2 10 6 ZW 1009,4 12 0 0,0
19.05.2019 05:00:00 9,5 8,7 9,5 15,3 14,7 3 2 13 7 ZW 1009,3 20 0 0,0
19.05.2019 04:00:00 9,3 8,7 9,2 15,4 14,7 4 2 9 5 ZZW 1009,4 20 0 0,0
19.05.2019 03:00:00 9,4 8,6 9,5 15,5 14,6 5 3 9 5 ZZW 1009,5 20 0 0,0
19.05.2019 02:00:00 9,5 8,7 9,6 15,6 14,7 4 2 10 5 ZZW 1010,0 20 0 0,0
19.05.2019 01:00:00 9,5 8,7 8,8 15,7 14,7 5 3 11 6 ZZW 1010,3 20 0 0,0
19.05.2019 00:00:00 9,0 8,1 8,0 15,9 14,7 3 2 13 7 Z 1010,6 20 0 0,0
18.05.2019 23:00:00 9,9 8,0 9,0 15,9 14,7 3 2 16 9 ZW 1010,4 20 0 0,0
18.05.2019 22:00:00 10,8 8,7 10,1 16,0 14,7 7 4 16 9 WZW 1009,9 20 0 0,0
18.05.2019 21:00:00 11,4 8,8 11,4 16,0 14,7 4 2 15 8 ZW 1009,3 20 0 0,0
18.05.2019 20:00:00 12,1 7,4 12,8 15,8 14,7 7 4 25 14 W 1008,9 20 5 0,0
18.05.2019 19:00:00 13,4 8,7 14,3 15,7 14,7 7 4 28 15 WZW 1007,9 20 16 0,0
18.05.2019 18:00:00 15,6 8,3 16,0 15,5 14,7 8 4 29 16 W 1007,5 20 13 0,0
18.05.2019 17:00:00 14,7 9,1 16,6 15,4 14,7 8 4 18 10 ZW 1007,3 20 33 0,0
18.05.2019 16:00:00 12,6 9,8 12,5 15,2 14,7 6 4 22 12 WNW 1007,7 20 1 0,2
18.05.2019 15:00:00 12,7 11,6 11,8 15,0 14,7 8 4 18 10 Z 1007,6 19 6 2,0
18.05.2019 14:00:00 13,2 9,3 14,9 14,9 14,7 5 3 18 10 W 1007,5 20 1 0,0
18.05.2019 13:00:00 12,2 9,0 13,9 14,8 14,8 7 4 23 12 ZW 1007,9 20 10 0,2
18.05.2019 12:00:00 12,7 10,8 11,9 14,8 14,7 6 3 20 11 WZW 1007,6 20 14 0,0
18.05.2019 11:00:00 10,7 9,5 11,1 14,8 14,7 4 2 16 9 ZW 1007,8 18 0 0,0
18.05.2019 10:00:00 10,0 9,2 10,4 14,8 14,7 8 5 18 10 ZW 1007,9 17 0 0,0
18.05.2019 09:00:00 10,1 9,6 10,3 14,9 14,8 5 3 17 9 ZW 1007,5 13 0 0,0
18.05.2019 08:00:00 9,6 9,5 9,3 15,0 14,7 5 3 13 7 ZW 1007,5 10 0 0,0
18.05.2019 07:00:00 9,2 8,9 9,0 15,1 14,8 4 2 12 7 ZW 1007,2 4,9 0 0,0
18.05.2019 06:00:00 9,0 8,7 9,0 15,1 14,7 3 2 9 5 ZW 1006,9 5 0 0,2
18.05.2019 05:00:00 9,0 8,7 8,8 15,2 14,7 3 2 11 6 ZW 1007,0 3,0 0 0,2
18.05.2019 04:00:00 8,9 8,4 8,8 15,3 14,8 4 2 15 8 WZW 1007,3 5 0 0,6
18.05.2019 03:00:00 9,4 9,1 9,4 15,4 14,8 5 3 18 10 WZW 1007,4 5 0 0,2
18.05.2019 02:00:00 9,7 9,4 9,7 15,5 14,7 5 3 21 11 W 1007,4 5 0 0,2
18.05.2019 01:00:00 10,0 9,7 10,0 15,5 14,7 7 4 21 12 W 1007,4 4,6 0 0,6
18.05.2019 00:00:00 10,5 10,2 10,5 15,6 14,7 8 4 23 13 W 1007,2 5 0 0,0
17.05.2019 23:00:00 10,5 10,2 10,6 15,7 14,8 3 2 10 6 W 1007,1 1,7 0 0,2
17.05.2019 22:00:00 10,6 10,0 10,8 15,7 14,8 2 1 7 4 WNW 1006,8 8 0 0,8
17.05.2019 21:00:00 10,7 9,9 10,8 15,8 14,8 0 0 5 3 N 1006,3 12 0 0,4
17.05.2019 20:00:00 10,7 9,9 10,7 15,8 14,8 3 1 12 7 OZO 1005,8 9 0 0,0
17.05.2019 19:00:00 10,9 10,0 11,4 15,9 14,7 5 3 13 7 ZO 1005,7 20 0 0,2
17.05.2019 18:00:00 11,0 9,9 11,2 15,9 14,7 6 3 15 8 ZO 1005,8 17 0 0,2
17.05.2019 17:00:00 10,8 9,4 11,3 15,9 14,7 9 5 18 10 OZO 1005,7 17 0 0,0
17.05.2019 16:00:00 11,3 9,7 12,0 15,9 14,7 10 5 18 10 OZO 1005,5 20 0 0,0
17.05.2019 15:00:00 11,7 9,9 11,9 15,9 14,7 9 5 22 12 ZO 1005,3 20 0 0,0
17.05.2019 14:00:00 12,4 10,8 12,1 15,9 14,7 8 4 19 10 O 1004,9 20 0 0,6
17.05.2019 13:00:00 11,6 10,7 11,9 15,9 14,7 7 4 19 10 O 1004,8 10 0 0,4
17.05.2019 12:00:00 11,3 10,5 12,0 16,0 14,7 10 6 18 10 ONO 1004,3 9 0 1,0
17.05.2019 11:00:00 11,0 10,5 11,6 16,1 14,7 8 4 18 10 NO 1004,4 12 0 0,8
17.05.2019 10:00:00 10,5 10,2 10,7 16,2 14,7 7 4 13 7 N 1004,3 3,6 0 2,3
17.05.2019 09:00:00 10,3 9,8 10,7 16,3 14,7 7 4 10 5 N 1004,6 7 0 1,4
17.05.2019 08:00:00 10,7 10,2 10,5 16,4 14,7 3 2 8 4 N 1004,2 4,7 0 1,6
17.05.2019 07:00:00 10,8 10,3 10,6 16,5 14,6 4 2 13 7 O 1004,0 6 0 1,2
17.05.2019 06:00:00 11,1 10,0 10,7 16,6 14,7 3 2 9 5 O 1003,6 16 0 1,0
17.05.2019 05:00:00 11,9 9,6 10,7 16,8 14,6 8 4 29 16 Z 1003,7 16 0 0,2
17.05.2019 04:00:00 13,9 7,9 13,0 16,9 14,6 18 10 33 18 Z 1003,6 20 0 0,0
17.05.2019 03:00:00 14,4 7,0 12,6 17,0 14,6 14 8 33 18 Z 1003,6 20 0 0,0
17.05.2019 02:00:00 13,6 7,1 11,6 17,2 14,6 11 6 21 11 Z 1004,1 20 0 0,0
17.05.2019 01:00:00 13,4 7,2 11,7 17,3 14,6 8 4 11 6 OZO 1004,7 20 0 0,0
17.05.2019 00:00:00 13,3 8,1 11,5 17,4 14,6 6 3 9 5 ZO 1005,6 20 0 0,0
16.05.2019 23:00:00 13,8 8,2 12,0 17,5 14,6 5 3 10 5 Z 1006,0 20 0 0,0
16.05.2019 22:00:00 15,4 7,7 11,7 17,5 14,6 4 2 8 4 ZO 1005,8 20 0 0,0
16.05.2019 21:00:00 17,8 6,0 14,4 17,5 14,6 6 3 10 5 NNW 1005,8 20 0 0,0
16.05.2019 20:00:00 19,7 6,8 18,8 17,4 14,6 6 4 11 6 N 1005,6 20 36 0,0
16.05.2019 19:00:00 20,1 7,1 21,3 17,2 14,6 3 2 9 5 N 1005,8 20 22 0,0

tt = temperatuur
td = dauwpunt
tt 5cm = temperatuur 5cm
tt -20cm = temperatuur -20cm
tt -100cm = temperatuur -100cm
ff = windsnelheid
fx = windstoten
dd = windrichting
ppp = luchtdruk
vv = zicht
sd = Zonneschijnduur
rr = neerslag

Weerstations in de omgeving